Погода в Василевичи

Погода в Василевичи : погода сейчас, прогноз погоды и архив. Всё, что Вы хотите узнать о погоде в Василевичи!

Хотите узнать прогноз погоды в Василевичи? Тогда Вам сюда: Погода в Василевичи

Поиск расширенной информации на нашем сайте:

Другие новости

Новости СМИ2

Главная страница сайта

Новости сайта

02.10.2013

Напоминаем, что на нашем новом сайте вы можете получить высокодетализированные прогнозы погоды по пунктам России, СНГ и мира (включающие важные для авиации метеовеличины, такие как направление и скорость ветра, видимость, явления погоды, количество и форма облачности, нижняя и верхняя граница облачности), а также ознакомиться с разнообразными материалами по авиационной метеорологии и подборкой полезных ссылок на эту тему.

Сайт Метеоцентр.Азия посвящён разработке технологий оптимизации авиаметеорологического обслуживания, включая проектирование и перспективное создание нескольких автоматизированных авиаметеорологических систем:
- система выпуска высокодетальных прогностических карт явлений погоды для нижнего воздушного пространства по России и ближнему зарубежью;
- система верификации прогнозов TAF (выпускаемых синоптиками официальных АМСГ РФ и ближнего зарубежья) и AUTOTAF (выпускаемых сайтом Метеоцентр.Азия) - выявление ошибок, онлайн-сопоставление с фактической погодой METAR, автоматическое внесение коррективов в прогнозы при резком отклонении фактической погоды от прогноза, подсчёт оправдываемости прогнозов по элементам и в целом;
- система обработки, анализа и отображения авиаметеорологической информации для применения провайдерами метеорологической информации.


Погода в Василевичи - сегодня

Время (UTC), дата Ветер
(°,м/с) 
Видим.   Явления Облачность Т
(°С)
Тd
(°С)
f(%) Тe
(°С)
Pmin
(гПа)
dP
(гПа)
Po
(мм)
O2
(г/м3)
Тmin Tmax R s Состояние
почвы
15 21.01.17 300 (СЗ) 10 км    10/10 600 м 
[Sc]
+1.6 -0.3 87 1023.7  1.5  754  302      0.0     
18 21.01.17 340 (С) 10 км    3/3 1000 м 
[Sc]
+0.5 -1.2 88 -1  1026.5  2.6  756  304    +1.9  0.0   
21 21.01.17 310 (СЗ) 4000 м  дымка  ясно 
-2.9 -3.6 95 -2  1029.3  2.6  758  309           
00 22.01.17 310 (СЗ) 4000 м  дымка  ясно 
-4.5 -5.2 95 -4  1031  1.5  759  312           
03 22.01.17 310 (СЗ) 4000 м  дымка  10/10 300 м 
[Sc]
-3.6 -4.4 94 -3  1032  760  311         
06 22.01.17 280 (З) 4000 м  дымка [диам. изморози 2 мм]  10/10 600 м 
[Sc]
-3.2 -3.9 95 -4  1032.6  0.7  761  311  -5.5      равномерный
мокрый или
старый снег
100% 
09 22.01.17 280 (З) 4000 м  дымка [диам. изморози 2 мм]  10/10 600 м 
[Sc]
-2.6 -3.6 93 -4  1032.2  -0.4  760  310           
12 22.01.17 260 (З) 4000 м  дымка  10/10 600 м 
[Sc]
-1.5 -2.9 90 -4  1031.1  -1  760  308           
15 22.01.17 270 (З) 10 км    10/10 600 м 
[Sc]
-0.8 -2.4 89 -3  1030.6  -0.4  759  307           
18 22.01.17 270 (З) 4000 м  дымка  10/10 600 м 
[Sc]
-0.1 -1.2 92 -2  1029.8  -0.7  759  306    -0.1     
21 22.01.17 270 (З) 3{10}  4000 м  дымка  10/10 600 м 
[Sc]
-0.3 -0.9 96 -2  1029.7  -0.2  759  306           
00 23.01.17 260 (З) 4000 м  дымка  10/10 600 м 
[Sc]
-0.4 -1 96 -1  1028.8  -0.9  758  306           
03 23.01.17 280 (З) 4000 м  дымка  10/10 300 м 
[Sc]
-0.8 -1.5 95 -3  1028.1  -0.7  758  306         
06 23.01.17 230 (ЮЗ) 1000 м  дымка  10/10 300 м 
[St]
-1.2 -1.7 96 -3  1027.2  -0.9  757  307  -1.4      равномерный
мокрый или
старый снег
100% 
09 23.01.17 230 (ЮЗ) 4000 м  дымка  10/10 300 м 
[St]
-1 -1.4 97 -3  1026.6  -0.6  756  306           
12 23.01.17 240 (ЮЗ) 4000 м  дымка  10/10 600 м 
[Sc]
-0.7 -1.7 93 -3  1024.1  -2.4  755  305           
15 23.01.17 230 (ЮЗ) 4000 м  дымка  10/10 600 м 
[Sc]
-1.4 -2.8 90 -3  1022.9  -1.2  754  306           
18 23.01.17 240 (ЮЗ) 4000 м  дымка  10/10 600 м 
[Sc]
-1.5 -2.6 92 -3  1021.7  -1.3  753  305    -0.7     
21 23.01.17 260 (З) 4000 м  дымка  10/10 600 м 
[Sc]
-1.6 -2.4 94 -4  1021.1  -0.6  752  305           
00 24.01.17 260 (З) 10 км    10/10 600 м 
[Sc]
-1.4 -3.4 86 -3  1019.4  -1.5  751  305           
03 24.01.17 280 (З) 10 км    10/10 600 м 
[Sc]
-1.6 -3.3 88 -4  1018.6  -0.9  750  305         
06 24.01.17 290 (З) 10 км    10/10 600 м 
[Sc]
-2 -3.8 87 -4  1017.8  -0.8  750  305  -2.1      равномерный
мокрый или
старый снег
100% 
09 24.01.17 260 (З) 10 км    10/10 600 м 
[Sc]
-1.7 -3.8 86 -4  1018.1  0.3  750  305           
12 24.01.17 270 (З) 10 км    10/10 1000 м 
[Sc]
-1.4 -3.4 86 -3  1017.4  -0.6  750  304           
15 24.01.17 280 (З) 10 км    10/10 600 м 
[Sc]
-1.4 -3.4 86 -3  1018.4  750  304           
Время (UTC), дата Ветер
(°,м/с) 
Видим.   Явления Облачность Т
(°С)
Тd
(°С)
f(%) Тe
(°С)
Pmin
(гПа)
dP
(гПа)
Po
(мм)
O2
(г/м3)
Тmin Tmax R s Состояние
почвы

Для получения пояснительной информации подведите курсор к названию столбца.

ПОГОДА в Василевичи - архив

Всё, что Вы хотите узнать о погоде в Василевичи - удобно и подробно!

Выберите нужную дату (начиная с 1 января 2015* года) и нажмите кнопку "Найти".
Будут отображены архивные сводки погоды по пункту Василевичи, начиная с указанной даты.


Отображать данные в формате CSV (для использования в таблицах Excel)


Внимание! Наш архив погоды предназначен исключительно для личного некоммерческого использования в познавательных целях. Если Вам необходимы официальные справки о состоянии погоды (для производственных, юридических, коммерческих и т.п. целей), обращайтесь в органы Росгидромета.

*Примечание: данная дата относится к архиву по метеостанциям СССР (Россия, СНГ, Балтия).
Архив по метеостанциям Зарубежной Европы и Азии (кроме Китая) хранится 10 дней, по другим регионам земного шара (Китай, Африка, Америка, Австралия, Океания) - 1 день.

Василевичи - район местоположения метеостанции


Название, широта, долгота, высота метеостанции:
Василевичи 52.2°ш. 29.8°д. 142 м над ур. моря [Беларусь]

Дополнительная информация

В oтличие oт бoльшинства пoгoдных сайтoв мы публикуем пoдрoбную метеoинфoрмацию в детальнoм прoфессиoнальнoм фoрмате.

Характеристики температуры и влажнoсти вoздуха измеряются на высoте 2 м в тени вдали oт зданий и деревьев.
Скoрoсть ветра измеряется на высoте 10 м (на урoвне рoста челoвека скoрoсть ветра ниже в 1.5-2 раза). Если метеoстанция нахoдится в гoрoде или в лесу, тo скoрoсть ветра занижена на 2-4 м/с пo сравнению с oткрытым местoм. Скoрoсть ветра над акватoриями крупных рек и oзёр, а также на вершинах хoлмoв на 2-5 м/с выше, чем в oбычных услoвиях.
Атмoсфернoе давление в разных тoчках местнoсти мoжет значительнo oтличаться oт давления на метеoстанции, в зависимoсти oт услoвий рельефа (при пoдъёме на 10 м давление пoнижается примернo на 1 мм рт.ст.).